Location: Newark
(48.4472°N, 1.4892°E)
Time: 10:51:43
(UTC+00:00)

Transit 4A - Pass Details

Date: 17 January 2021
Orbit: 866 x 978 km, 66.8° (Epoch: 26 February)

Event Time Altitude Azimuth Distance (km) Brightness Sun altitude
Exits shadow 05:02:34 41° 333° (NNW) 1,341 8.4 -25.4°
Maximum altitude 05:04:54 81° 54° (NE) 949 7.9 -25.0°
Drops below altitude 10° 05:10:57 10° 142° (SE) 2,591 10.8 -24.0°
Sets 05:13:25 0° 143° (SE) 3,513 11.5 -23.6°
